Location: Marsån
(66.4167°N, 22.2833°E)
Time: 08:44:24
(UTC+00:00)

Cosmos 2237 Rocket - Pass Details

Date: 24 February 2024
Orbit: 833 x 851 km, 71.0° (Epoch: 20 April)

Event Time Altitude Azimuth Distance (km) Brightness Sun altitude
Rises 20:56:11 0° 315° (NW) 3,407 6.5 -30.1°
Reaches altitude 10° 20:58:46 10° 307° (NW) 2,472 5.4 -30.2°
Enters shadow 21:03:17 37° 257° (WSW) 1,305 3.2 -30.5°
